Weather History for Northeast Philadelphia, PA

Change the Weather History Date:

Thursday, April 17, 2014

  Actual Average Record
Temperature  
Mean Temperature 42 °F -  
Max Temperature 51 °F 62 °F 93 °F (2002)
Min Temperature 33 °F 41 °F 33 °F (2014)
Degree Days  
Heating Degree Days 24    
Moisture  
Dew Point 25 °F    
Average Humidity 51    
Maximum Humidity 70    
Minimum Humidity 39    
Precipitation  
Precipitation 0.00 in - - ()
Sea Level Pressure  
Sea Level Pressure 30.66 in    
Wind  
Wind Speed 9 mph (East)    
Max Wind Speed 16 mph    
Max Gust Speed 23 mph    
Visibility 10 miles    
Events      
Averages and records for this station are not official NWS values.
T = Trace of Precipitation, MM = Missing Value Source: NWS Daily Summary

Daily Weather History Graph

Daily Weather History Graph

Search for Another Location

Airport:

Trip Planner

Search our weather history database for the weather conditions in past years. The results will help you decide how hot, cold, wet, or windy it might be!

Date:

Astronomy

Apr. 17, 2014 Rise Set
Actual Time 6:19 AM EDT 7:40 PM EDT
Civil Twilight 5:50 AM EDT 8:08 PM EDT
Nautical Twilight 5:17 AM EDT 8:42 PM EDT
Astronomical Twilight 4:41 AM EDT 9:18 PM EDT
Moon 10:23 PM EDT (4/17) 7:49 AM EDT (4/17)
Length of Visible Light 14h 17m
Length of Day
13h 21m
Waning Gibbous, 94% of the Moon is Illuminated
Apr 17
Waning Gibbous
Apr 22
Last Quarter
Apr 29
New
May 6
First Quarter
May 14
Full

Hourly Weather History & Observations

Time (EDT) Temp. Windchill Dew Point Humidity Pressure Visibility Wind Dir Wind Speed Gust Speed Precip Events Conditions
12:54 AM 37.0 °F 31.6 °F 19.0 °F 48% 30.59 in 10.0 mi NNE 6.9 mph - N/A   Clear
1:54 AM 35.1 °F 30.1 °F 19.0 °F 52% 30.61 in 10.0 mi NE 5.8 mph - N/A   Clear
2:54 AM 35.1 °F 28.6 °F 19.0 °F 52% 30.60 in 10.0 mi NNE 8.1 mph - N/A   Clear
3:54 AM 34.0 °F 26.6 °F 18.0 °F 52% 30.61 in 10.0 mi NNE 9.2 mph - N/A   Clear
4:54 AM 33.1 °F 26.1 °F 18.0 °F 54% 30.62 in 10.0 mi NE 8.1 mph - N/A   Clear
5:54 AM 33.1 °F 27.7 °F 19.0 °F 56% 30.64 in 10.0 mi NE 5.8 mph - N/A   Clear
6:54 AM 35.1 °F 28.6 °F 19.9 °F 54% 30.67 in 10.0 mi NNE 8.1 mph - N/A   Clear
7:54 AM 39.9 °F 33.9 °F 23.0 °F 51% 30.69 in 10.0 mi ENE 9.2 mph - N/A   Clear
8:54 AM 44.1 °F 36.8 °F 27.0 °F 51% 30.70 in 10.0 mi East 16.1 mph - N/A   Clear
9:54 AM 45.0 °F 39.3 °F 27.0 °F 49% 30.72 in 10.0 mi East 11.5 mph - N/A   Partly Cloudy
10:54 AM 48.0 °F - 26.1 °F 42% 30.72 in 10.0 mi East 11.5 mph 23.0 mph N/A   Clear
11:54 AM 48.2 °F - 24.8 °F 40% 30.71 in 10.0 mi SE 8.1 mph 18.4 mph N/A   Clear
12:54 PM 50.0 °F - 26.1 °F 39% 30.70 in 10.0 mi SE 10.4 mph - N/A   Scattered Clouds
1:54 PM 50.0 °F - 27.0 °F 41% 30.69 in 10.0 mi SE 11.5 mph - N/A   Scattered Clouds
2:54 PM 50.0 °F - 28.0 °F 43% 30.69 in 10.0 mi East 10.4 mph 20.7 mph N/A   Mostly Cloudy
3:54 PM 50.0 °F - 28.0 °F 43% 30.67 in 10.0 mi ESE 9.2 mph 21.9 mph N/A   Partly Cloudy
4:54 PM 48.0 °F - 28.0 °F 46% 30.66 in 10.0 mi East 15.0 mph 23.0 mph N/A   Partly Cloudy
5:54 PM 48.0 °F - 26.1 °F 42% 30.66 in 10.0 mi ESE 12.7 mph - N/A   Clear
6:54 PM 46.0 °F 41.0 °F 26.1 °F 46% 30.65 in 10.0 mi ESE 10.4 mph - N/A   Clear
7:54 PM 43.0 °F 38.2 °F 27.0 °F 53% 30.65 in 10.0 mi East 8.1 mph - N/A   Clear
8:54 PM 41.0 °F 34.7 °F 28.0 °F 60% 30.65 in 10.0 mi ESE 10.4 mph - N/A   Clear
9:54 PM 39.0 °F 33.4 °F 28.0 °F 65% 30.64 in 10.0 mi East 8.1 mph - N/A   Clear
10:54 PM 37.9 °F 34.4 °F 28.0 °F 68% 30.63 in 10.0 mi ENE 4.6 mph - N/A   Clear
11:37 PM 37.9 °F 34.4 °F 28.9 °F 70% 30.62 in 10.0 mi ENE 4.6 mph - N/A   Mostly Cloudy
11:54 PM 39.0 °F 35.7 °F 30.0 °F 70% 30.62 in 10.0 mi ENE 4.6 mph - N/A   Overcast